timestamp,surface_pressure_avg,surface_temp_avg,battery_voltage,lat,long
2020-05-01 00:09:01+00:00,220.2664,2.8,13.05,47.84626,-54.09684
2020-05-01 00:19:01+00:00,219.3215,2.8,12.81,47.84626,-54.09684
2020-05-01 00:29:01+00:00,225.4881,2.47,12.81,47.84626,-54.09684
2020-05-01 00:39:01+00:00,228.3431,1.9,12.81,47.84626,-54.09684
2020-05-01 00:49:01+00:00,223.858,1.85,12.81,47.84626,-54.09684
2020-05-01 00:59:01+00:00,226.8898,1.8,12.81,47.84626,-54.09684
2020-05-01 01:09:01+00:00,234.0631,1.7,12.81,47.84626,-54.09684
2020-05-01 01:19:01+00:00,235.713,1.7,12.65,47.84626,-54.09684
2020-05-01 01:29:01+00:00,239.9064,1.7,12.65,47.84626,-54.09684
2020-05-01 01:39:01+00:00,248.7914,1.72,12.65,47.84626,-54.09684
2020-05-01 01:49:01+00:00,251.4597,1.73,12.65,47.84626,-54.09684
2020-05-01 01:59:01+00:00,246.1598,1.76,12.65,47.84626,-54.09684
2020-05-01 02:09:01+00:00,245.3031,1.77,12.65,47.84626,-54.09684
2020-05-01 02:19:01+00:00,253.9914,1.7,12.65,47.84626,-54.09684
2020-05-01 02:29:01+00:00,261.4831,1.7,12.65,47.84626,-54.09684
2020-05-01 02:39:01+00:00,264.0997,1.7,12.65,47.84626,-54.09684
2020-05-01 02:49:01+00:00,268.0031,1.72,12.65,47.84626,-54.09684
2020-05-01 02:59:01+00:00,273.7698,1.7,12.65,47.84626,-54.09684
2020-05-01 03:09:01+00:00,274.0914,1.7,12.65,47.84626,-54.09684
2020-05-01 03:19:01+00:00,276.8764,1.7,12.65,47.84626,-54.09684
2020-05-01 03:29:01+00:00,284.2097,1.7,12.65,47.84626,-54.09684
2020-05-01 03:39:01+00:00,292.9697,1.5,12.65,47.84626,-54.09684
2020-05-01 03:49:01+00:00,296.6914,1.4,12.65,47.84626,-54.09684
2020-05-01 03:59:01+00:00,300.0314,1.4,12.65,47.84626,-54.09684
2020-05-01 04:09:01+00:00,301.7762,1.39,12.65,47.84626,-54.09684
2020-05-01 04:19:01+00:00,303.078,1.41,12.65,47.84626,-54.09684
2020-05-01 04:29:01+00:00,301.268,1.44,12.65,47.84626,-54.09684
2020-05-01 04:39:01+00:00,301.7963,1.48,12.65,47.84626,-54.09684
2020-05-01 04:49:01+00:00,305.8748,1.5,12.65,47.84626,-54.09684
2020-05-01 04:59:01+00:00,308.6612,1.49,12.65,47.84626,-54.09684
2020-05-01 05:09:01+00:00,305.0964,1.5,12.65,47.84626,-54.09684
2020-05-01 05:19:01+00:00,305.828,1.56,12.65,47.84626,-54.09684
2020-05-01 05:29:01+00:00,311.7347,1.58,12.65,47.84626,-54.09684
2020-05-01 05:39:01+00:00,312.308,1.5,12.65,47.84626,-54.09684
2020-05-01 05:49:01+00:00,310.368,1.5,12.65,47.84626,-54.09684
2020-05-01 05:59:01+00:00,312.1897,1.55,12.65,47.84626,-54.09684
2020-05-01 06:09:01+00:00,313.6678,1.55,12.65,47.84626,-54.09684
2020-05-01 06:19:01+00:00,312.5997,1.5,12.57,47.84626,-54.09684
2020-05-01 06:29:01+00:00,310.4932,1.45,12.57,47.84626,-54.09684
2020-05-01 06:39:01+00:00,309.0447,1.4,12.57,47.84626,-54.09684
2020-05-01 06:49:01+00:00,306.0447,1.36,12.57,47.84626,-54.09684
2020-05-01 06:59:01+00:00,301.673,1.3,12.57,47.84626,-54.09684
2020-05-01 07:09:01+00:00,301.1929,1.29,12.57,47.84626,-54.09684
2020-05-01 07:19:01+00:00,297.6398,1.3,12.57,47.84626,-54.09684
2020-05-01 07:29:01+00:00,293.5181,1.31,12.57,47.84626,-54.09684
2020-05-01 07:39:01+00:00,289.6297,1.3,12.57,47.84626,-54.09684
2020-05-01 07:49:01+00:00,286.6864,1.38,12.57,47.84626,-54.09684
2020-05-01 07:59:01+00:00,278.1247,1.51,12.57,47.84626,-54.09684
2020-05-01 08:09:01+00:00,273.4798,1.5,12.57,47.84626,-54.09684
2020-05-01 08:19:01+00:00,270.2798,1.48,12.49,47.84626,-54.09684
2020-05-01 08:29:01+00:00,261.6114,1.88,12.49,47.84626,-54.09684
2020-05-01 08:39:01+00:00,251.1181,2.1,12.49,47.84626,-54.09684
2020-05-01 08:49:01+00:00,248.0198,2.1,12.49,47.84626,-54.09684
2020-05-01 08:59:01+00:00,242.2431,2.09,12.49,47.84626,-54.09684
2020-05-01 09:09:01+00:00,228.6231,2.14,12.49,47.84626,-54.09684
2020-05-01 09:19:01+00:00,222.9665,2.28,12.57,47.84626,-54.09684
2020-05-01 09:29:01+00:00,225.9632,2.2,12.57,47.84626,-54.09684
2020-05-01 09:39:01+00:00,223.2331,2.2,12.57,47.84626,-54.09684
2020-05-01 09:49:01+00:00,217.3498,2.26,12.57,47.84626,-54.09684
2020-05-01 09:59:01+00:00,217.3264,2.2,12.57,47.84626,-54.09684
2020-05-01 10:09:01+00:00,218.1331,2.1,12.57,47.84626,-54.09684
2020-05-01 10:19:01+00:00,213.1564,2.19,12.97,47.84626,-54.09684
2020-05-01 10:29:01+00:00,208.8297,2.27,12.97,47.84626,-54.09684
2020-05-01 10:39:01+00:00,210.3465,2.2,12.97,47.84626,-54.09684
2020-05-01 10:49:01+00:00,208.8248,2.1,12.97,47.84626,-54.09684
2020-05-01 10:59:01+00:00,203.2231,2.1,12.97,47.84626,-54.09684
2020-05-01 11:09:01+00:00,202.3848,2.09,12.97,47.84626,-54.09684
2020-05-01 11:19:01+00:00,204.9082,2.0,13.68,47.84626,-54.09684
2020-05-01 11:29:01+00:00,205.1747,1.99,13.68,47.84626,-54.09684
2020-05-01 11:39:01+00:00,203.218,1.91,13.68,47.84626,-54.09684
2020-05-01 11:49:01+00:00,204.9464,1.9,13.68,47.84626,-54.09684
2020-05-01 11:59:01+00:00,208.7999,1.9,13.68,47.84626,-54.09684
2020-05-01 12:09:01+00:00,210.1897,1.9,13.68,47.84626,-54.09684
2020-05-01 12:19:01+00:00,208.8064,1.9,14.32,47.84626,-54.09684
2020-05-01 12:29:01+00:00,207.0765,1.93,14.32,47.84626,-54.09684
2020-05-01 12:39:01+00:00,204.7664,1.96,14.32,47.84626,-54.09684
2020-05-01 12:49:01+00:00,203.4733,1.99,14.32,47.84626,-54.09684
2020-05-01 12:59:01+00:00,204.2982,2.0,14.32,47.84626,-54.09684
2020-05-01 13:09:01+00:00,206.4315,2.0,14.32,47.84626,-54.09684
2020-05-01 13:19:01+00:00,208.5397,2.0,14.64,47.84626,-54.09684
2020-05-01 13:29:01+00:00,210.7881,2.0,14.64,47.84626,-54.09684
2020-05-01 13:39:01+00:00,211.4299,2.0,14.64,47.84626,-54.09684
2020-05-01 13:49:01+00:00,210.4982,2.0,14.64,47.84626,-54.09684
2020-05-01 13:59:01+00:00,213.5614,2.0,14.64,47.84626,-54.09684
2020-05-01 14:09:01+00:00,219.5231,2.03,14.64,47.84626,-54.09684
2020-05-01 18:19:01+00:00,297.0197,2.9,14.0,47.84626,-54.09684
2020-05-01 18:29:01+00:00,294.8746,2.9,14.0,47.84626,-54.09684
2020-05-01 18:39:01+00:00,292.2347,2.9,14.0,47.84626,-54.09684
2020-05-01 18:49:01+00:00,294.1664,2.9,14.0,47.84626,-54.09684
2020-05-01 18:59:01+00:00,294.6547,2.9,14.0,47.84626,-54.09684
2020-05-01 19:09:01+00:00,289.0647,2.9,14.0,47.84626,-54.09684
2020-05-01 19:19:01+00:00,286.2447,2.9,13.84,47.84626,-54.09684
2020-05-01 19:29:01+00:00,281.9347,2.9,13.84,47.84626,-54.09684
2020-05-01 19:39:01+00:00,279.713,2.9,13.84,47.84626,-54.09684
2020-05-01 19:49:01+00:00,279.5831,2.9,13.84,47.84626,-54.09684
2020-05-01 19:59:01+00:00,279.4647,2.9,13.84,47.84626,-54.09684
2020-05-01 20:09:01+00:00,270.8764,2.9,13.84,47.84626,-54.09684
2020-05-01 20:19:01+00:00,267.723,2.8,13.76,47.84626,-54.09684
2020-05-01 20:29:01+00:00,265.4847,2.7,13.76,47.84626,-54.09684
2020-05-01 20:39:01+00:00,260.7881,2.59,13.76,47.84626,-54.09684
2020-05-01 20:49:01+00:00,251.0697,2.59,13.76,47.84626,-54.09684
2020-05-01 20:59:01+00:00,247.1697,2.5,13.76,47.84626,-54.09684
2020-05-01 21:09:01+00:00,244.0614,2.41,13.76,47.84626,-54.09684
2020-05-01 21:19:01+00:00,236.5114,2.45,13.68,47.84626,-54.09684
2020-05-01 21:29:01+00:00,229.6381,2.5,13.68,47.84626,-54.09684
2020-05-01 21:39:01+00:00,226.7098,2.5,13.68,47.84626,-54.09684
2020-05-01 21:49:01+00:00,223.3781,2.55,13.68,47.84626,-54.09684
2020-05-01 21:59:01+00:00,217.4415,2.59,13.68,47.84626,-54.09684
2020-05-01 22:09:01+00:00,215.7564,2.6,13.68,47.84626,-54.09684
2020-05-01 22:19:01+00:00,216.3531,2.6,13.37,47.84626,-54.09684
2020-05-01 22:29:01+00:00,214.2681,2.69,13.37,47.84626,-54.09684
2020-05-01 22:39:01+00:00,213.3548,2.76,13.37,47.84626,-54.09684
2020-05-01 22:49:01+00:00,213.5131,3.0,13.37,47.84626,-54.09684
2020-05-01 22:59:01+00:00,212.2581,3.2,13.37,47.84626,-54.09684
2020-05-01 23:09:01+00:00,212.6898,3.29,13.37,47.84626,-54.09684
2020-05-01 23:19:01+00:00,216.8114,3.29,12.97,47.84626,-54.09684
2020-05-01 23:29:01+00:00,218.2414,3.31,12.97,47.84626,-54.09684
2020-05-01 23:39:01+00:00,215.6648,3.4,12.97,47.84626,-54.09684
2020-05-01 23:49:01+00:00,215.0314,3.4,12.97,47.84626,-54.09684
2020-05-01 23:59:01+00:00,216.1814,3.4,12.97,47.84626,-54.09684
